User: anonymous
Location: Unspecified
(0.0000°N, 0.0000°E)
Time: 08:10:14
(UTC+00:00)
Language:

ETS 8 - Orbit

View from above orbital plane
View from above orbital plane
View from above satellite
View from above satellite

Ground track
Ground track

The orbit data is extracted from the following two-line orbital elements,

1 29656U 06059A   14240.84409016  .00000000  00000-0  10000-3 0  4800
2 29656 003.6593 066.0955 0006128 084.5485 275.8812 01.00265366 28224
Epoch (UTC): 28 August 2014 20:15:29
Eccentricity: 0.0006128
inclination: 3.6593°
perigee height: 35762 km
apogee height: 35814 km
right ascension of ascending node: 66.0955°
argument of perigee: 84.5485°
revolutions per day: 1.00265366
mean anomaly at epoch: 275.8812°
orbit number at epoch: 2822

The dashed part of the orbit path shows where the satellite is in the earth's shadow,  

DLR